Tracking 23726 objects as of 22-Sep-2021
HD Live streaming from Space Station
objects crossing your sky now

STARLINK-1781

Track STARLINK-1781 now!
10-day predictions
STARLINK-1781 is classified as:


NORAD ID: 46685
Int'l Code: 2020-073R
Perigee: 552.9 km
Apogee: 555.5 km
Inclination: 53.1 °
Period: 95.6 minutes
Semi major axis: 6925 km
RCS: Unknown
Launch date: October 18, 2020
Source: United States (US)
Launch site: AIR FORCE EASTERN TEST RANGE (AFETR)
aabbcc
Your satellite tracking list
Your tracking list is empty




NASA's NSSDC Master Catalog

Two Line Element Set (TLE):
1 46685U 20073R   21265.47642185  .00007585  00000-0  52690-3 0  9994
2 46685  53.0572  10.4255 0001898 104.3434 255.7766 15.06447511 51351
Source of the keplerian elements: AFSPC